Find Starlink 32086

NORAD ID: 59703 Int'l Des: 2024-086 Owner: SPXS Country: US Constellation: starlink operational
LEOCIRCULAR

Live-Position

3D-Globus wird geladen...

Über Starlink 32086

Beschreibung wird geladen...

Nächste Überflüge

Passes for default location (London). Set your location on the main map for personalized predictions.

Höhenverlauf

Loading altitude history...

Zweizeiliger Elementsatz

1 59703U 24086X 26125.36521691 .00000345 00000-0 22069-4 0 9998
2 59703 43.0024 99.5071 0001201 273.6640 86.4075 15.27581093112782
Epoch: 5. Mai 2026 • Age: 13 hours

Aktueller Status

Höhe 483.2 km
Geschwindigkeit 7.63 km/s
Subsatellitenpunkt 23.99°N, 61.08°W
Startdatum 8. Mai 2024
Alter 1.9 years
Typ internet

Technische Details

Klassifizierung Payload
Masse 730.00 kg
Trockenmasse 700.00 kg
Gesamtmasse 730.00 kg
Länge 0.30 m
Durchmesser 4.10 m
Spannweite 29.00 m
Form Box + pan
Hersteller SPXS
Bus-Typ Starlink V2M
Phasenstatus In Orbit
Besitzer/Staat SPXS/US

Most Searched